• In Deutschland
  • Länderverzeichnis
  • Für 7 Tage
  • Wassertemperatur
  • Satellitenkarten
  • Wetterkarte
  • Widgets
  • user-avatar
    Anmelden

    Stündliche Wetter Itapicuru

    Heute, 23 November, Donnerstag

    Zeit Temperatur Niederschläge Wind Luftdruck Luftfeuchtigkeit
    00:00 +25°C° 0 mm 2 m/S 749 mmHg 92%
    01:00 +24°C° 0 mm 2 m/S 749 mmHg 93%
    02:00 +24°C° 0 mm 2 m/S 748 mmHg 94%
    03:00 +24°C° 0 mm 2 m/S 748 mmHg 96%
    04:00 +24°C° 0 mm 3 m/S 748 mmHg 94%
    05:00 +25°C° 0 mm 3 m/S 749 mmHg 92%
    06:00 +25°C° 0 mm 3 m/S 749 mmHg 91%
    07:00 +28°C° 0 mm 4 m/S 749 mmHg 79%
    08:00 +30°C° 0 mm 4 m/S 749 mmHg 67%
    09:00 +33°C° 0 mm 5 m/S 750 mmHg 55%
    10:00 +35°C° 0 mm 4 m/S 749 mmHg 50%
    11:00 +36°C° 0 mm 4 m/S 749 mmHg 46%
    12:00 +37°C° 0 mm 4 m/S 749 mmHg 41%
    13:00 +37°C° 0 mm 4 m/S 748 mmHg 42%
    14:00 +36°C° 0 mm 4 m/S 747 mmHg 44%
    15:00 +36°C° 0 mm 5 m/S 747 mmHg 46%
    16:00 +34°C° 0 mm 5 m/S 747 mmHg 54%
    17:00 +32°C° 0 mm 5 m/S 747 mmHg 62%
    18:00 +29°C° 0 mm 5 m/S 747 mmHg 70%
    19:00 +28°C° 0 mm 5 m/S 747 mmHg 75%
    20:00 +27°C° 0 mm 5 m/S 748 mmHg 80%
    21:00 +26°C° 0 mm 4 m/S 749 mmHg 84%
    22:00 +26°C° 0 mm 4 m/S 749 mmHg 87%
    23:00 +25°C° 0 mm 4 m/S 749 mmHg 89%

    Morgen, 24 November, Freitag

    Zeit Temperatur Niederschläge Wind Luftdruck Luftfeuchtigkeit
    00:00 +25°C° 0 mm 3 m/S 749 mmHg 92%
    01:00 +25°C° 0 mm 3 m/S 749 mmHg 93%
    02:00 +25°C° 0 mm 3 m/S 749 mmHg 94%
    03:00 +24°C° 0 mm 3 m/S 748 mmHg 95%
    04:00 +25°C° 0 mm 3 m/S 749 mmHg 93%
    05:00 +25°C° 0 mm 3 m/S 749 mmHg 91%
    06:00 +26°C° 0 mm 3 m/S 750 mmHg 88%
    07:00 +28°C° 0 mm 4 m/S 750 mmHg 78%
    08:00 +29°C° 0 mm 4 m/S 751 mmHg 67%
    09:00 +32°C° 0 mm 5 m/S 751 mmHg 57%
    10:00 +33°C° 0 mm 5 m/S 751 mmHg 52%
    11:00 +34°C° 0 mm 5 m/S 750 mmHg 48%
    12:00 +36°C° 0 mm 5 m/S 750 mmHg 43%
    13:00 +35°C° 0 mm 5 m/S 749 mmHg 44%
    14:00 +35°C° 0 mm 6 m/S 749 mmHg 46%
    15:00 +34°C° 0 mm 6 m/S 748 mmHg 47%
    16:00 +32°C° 0 mm 6 m/S 748 mmHg 55%
    17:00 +30°C° 0 mm 5 m/S 749 mmHg 63%
    18:00 +28°C° 0 mm 5 m/S 749 mmHg 70%
    19:00 +27°C° 0 mm 5 m/S 750 mmHg 77%
    20:00 +26°C° 0 mm 4 m/S 750 mmHg 83%
    21:00 +25°C° 0 mm 4 m/S 751 mmHg 89%
    22:00 +25°C° 0 mm 3 m/S 751 mmHg 91%
    23:00 +24°C° 0 mm 3 m/S 751 mmHg 93%

    übermorgen, 25 November, Samstag

    Zeit Temperatur Niederschläge Wind Luftdruck Luftfeuchtigkeit
    00:00 +24°C° 0 mm 2 m/S 751 mmHg 95%
    01:00 +24°C° 0,1 mm 2 m/S 750 mmHg 95%
    02:00 +24°C° 0,1 mm 2 m/S 750 mmHg 96%
    03:00 +23°C° 0,1 mm 1 m/S 750 mmHg 97%
    04:00 +24°C° 0,1 mm 2 m/S 750 mmHg 95%
    05:00 +24°C° 0,1 mm 2 m/S 750 mmHg 93%
    06:00 +25°C° 0,1 mm 2 m/S 750 mmHg 90%
    07:00 +27°C° 0 mm 3 m/S 751 mmHg 79%
    08:00 +29°C° 0 mm 3 m/S 751 mmHg 68%
    09:00 +32°C° 0 mm 4 m/S 752 mmHg 57%
    10:00 +33°C° 0,1 mm 5 m/S 751 mmHg 54%
    11:00 +34°C° 0,1 mm 5 m/S 751 mmHg 50%
    12:00 +34°C° 0,1 mm 5 m/S 750 mmHg 47%
    13:00 +34°C° 0 mm 5 m/S 750 mmHg 48%
    14:00 +34°C° 0 mm 6 m/S 749 mmHg 49%
    15:00 +33°C° 0 mm 6 m/S 748 mmHg 50%
    16:00 +32°C° 0 mm 6 m/S 749 mmHg 56%
    17:00 +29°C° 0 mm 5 m/S 749 mmHg 63%
    18:00 +27°C° 0 mm 5 m/S 749 mmHg 69%
    19:00 +26°C° 0 mm 4 m/S 750 mmHg 76%
    20:00 +25°C° 0 mm 3 m/S 750 mmHg 83%
    21:00 +24°C° 0 mm 2 m/S 751 mmHg 90%
    22:00 +24°C° 0 mm 2 m/S 750 mmHg 92%
    23:00 +23°C° 0 mm 2 m/S 750 mmHg 94%

    26 November, Sonntag

    Zeit Temperatur Niederschläge Wind Luftdruck Luftfeuchtigkeit
    00:00 +23°C° 0 mm 1 m/S 750 mmHg 96%
    01:00 +23°C° 0 mm 1 m/S 750 mmHg 96%
    02:00 +23°C° 0 mm 1 m/S 750 mmHg 96%
    03:00 +23°C° 0 mm 1 m/S 749 mmHg 96%
    04:00 +23°C° 0 mm 1 m/S 750 mmHg 93%
    05:00 +23°C° 0 mm 1 m/S 750 mmHg 91%
    06:00 +24°C° 0 mm 1 m/S 751 mmHg 89%
    07:00 +26°C° 0 mm 2 m/S 751 mmHg 76%
    08:00 +29°C° 0 mm 3 m/S 751 mmHg 64%
    09:00 +32°C° 0 mm 4 m/S 752 mmHg 52%
    10:00 +32°C° 0,1 mm 4 m/S 751 mmHg 53%
    11:00 +32°C° 0,1 mm 4 m/S 751 mmHg 53%
    12:00 +32°C° 0,1 mm 5 m/S 750 mmHg 54%
    13:00 +33°C° 0 mm 5 m/S 749 mmHg 52%
    14:00 +33°C° 0 mm 5 m/S 749 mmHg 51%
    15:00 +33°C° 0 mm 5 m/S 748 mmHg 49%
    16:00 +32°C° 0 mm 5 m/S 748 mmHg 55%
    17:00 +29°C° 0 mm 5 m/S 748 mmHg 61%
    18:00 +27°C° 0 mm 4 m/S 749 mmHg 68%
    19:00 +26°C° 0 mm 4 m/S 749 mmHg 75%
    20:00 +25°C° 0 mm 3 m/S 750 mmHg 81%
    21:00 +24°C° 0 mm 3 m/S 750 mmHg 88%
    22:00 +24°C° 0 mm 3 m/S 750 mmHg 91%
    23:00 +23°C° 0 mm 2 m/S 750 mmHg 93%

    27 November, Montag

    Zeit Temperatur Niederschläge Wind Luftdruck Luftfeuchtigkeit
    00:00 +23°C° 0 mm 2 m/S 750 mmHg 96%
    01:00 +23°C° 0 mm 2 m/S 750 mmHg 96%
    02:00 +21°C° 0 mm 2 m/S 749 mmHg 97%
    03:00 +22°C° 0 mm 1 m/S 749 mmHg 97%
    04:00 +23°C° 0 mm 1 m/S 750 mmHg 95%
    05:00 +23°C° 0 mm 1 m/S 750 mmHg 93%
    06:00 +24°C° 0 mm 1 m/S 751 mmHg 90%
    07:00 +26°C° 0 mm 2 m/S 751 mmHg 78%
    08:00 +28°C° 0 mm 3 m/S 751 mmHg 65%
    09:00 +32°C° 0 mm 4 m/S 752 mmHg 53%
    10:00 +33°C° 0 mm 4 m/S 751 mmHg 48%
    11:00 +34°C° 0 mm 4 m/S 751 mmHg 42%
    12:00 +36°C° 0 mm 4 m/S 750 mmHg 37%
    13:00 +35°C° 0 mm 4 m/S 749 mmHg 39%
    14:00 +35°C° 0 mm 5 m/S 749 mmHg 42%
    15:00 +34°C° 0 mm 5 m/S 748 mmHg 44%
    16:00 +33°C° 0 mm 5 m/S 748 mmHg 51%
    17:00 +30°C° 0 mm 5 m/S 749 mmHg 59%
    18:00 +28°C° 0 mm 5 m/S 749 mmHg 66%
    19:00 +27°C° 0 mm 5 m/S 749 mmHg 72%
    20:00 +26°C° 0 mm 4 m/S 750 mmHg 78%
    21:00 +25°C° 0 mm 4 m/S 750 mmHg 83%
    22:00 +24°C° 0 mm 3 m/S 750 mmHg 86%
    23:00 +24°C° 0 mm 3 m/S 750 mmHg 90%

    28 November, Dienstag

    Zeit Temperatur Niederschläge Wind Luftdruck Luftfeuchtigkeit
    00:00 +23°C° 0 mm 2 m/S 749 mmHg 93%
    01:00 +23°C° 0 mm 2 m/S 749 mmHg 94%
    02:00 +23°C° 0 mm 2 m/S 749 mmHg 95%
    03:00 +23°C° 0 mm 1 m/S 749 mmHg 97%
    04:00 +23°C° 0 mm 2 m/S 749 mmHg 94%
    05:00 +24°C° 0 mm 2 m/S 750 mmHg 91%
    06:00 +25°C° 0 mm 2 m/S 750 mmHg 88%
    07:00 +27°C° 0 mm 2 m/S 750 mmHg 78%
    08:00 +29°C° 0 mm 3 m/S 751 mmHg 67%
    09:00 +31°C° 0 mm 3 m/S 751 mmHg 56%
    10:00 +33°C° 0 mm 3 m/S 750 mmHg 51%
    11:00 +35°C° 0 mm 3 m/S 750 mmHg 45%
    12:00 +36°C° 0 mm 3 m/S 749 mmHg 40%
    13:00 +35°C° 0 mm 3 m/S 748 mmHg 42%
    14:00 +35°C° 0 mm 4 m/S 748 mmHg 45%
    15:00 +34°C° 0 mm 4 m/S 747 mmHg 47%
    16:00 +32°C° 0 mm 4 m/S 747 mmHg 52%
    17:00 +30°C° 0 mm 4 m/S 748 mmHg 58%
    18:00 +29°C° 0 mm 4 m/S 748 mmHg 63%
    19:00 +28°C° 0 mm 4 m/S 748 mmHg 70%
    20:00 +27°C° 0 mm 4 m/S 749 mmHg 77%
    21:00 +25°C° 0 mm 3 m/S 749 mmHg 85%
    22:00 +25°C° 0 mm 3 m/S 749 mmHg 87%
    23:00 +25°C° 0 mm 3 m/S 748 mmHg 90%
    Mehr zeigen